NKS8132 KLAX-KFLL

Flight info

Callsign NKS8132
Flight time 4h 3m
Altitude 33000
Route DOTSS2 CNERY BLH SPTFR SSO PEQ Q4 FUSCO LLO IAH J86 LEV Y290 DOWRY TEEKY4
Aircraft A321/M-SDE3FGHIRWY/LB1

Departure

Time 2026-05-04 01:53
Airport Los Angeles International Airport (KLAX)

Arrival

Time 2026-05-04 05:57
Airport Fort Lauderdale Hollywood International Airport (KFLL)
Time Latitude Longitude Altitude Speed Heading
2026-05-04 01:07 33.94674 -118.40330 121 ft 0 kts 263°
2026-05-04 01:41 33.94676 -118.40313 121 ft 3 kts 263°
2026-05-04 01:41 33.94678 -118.40291 122 ft 3 kts 268°
2026-05-04 01:42 33.94676 -118.40268 121 ft 3 kts 297°
2026-05-04 01:42 33.94665 -118.40251 120 ft 3 kts 335°
2026-05-04 01:42 33.94653 -118.40246 121 ft 0 kts 353°
2026-05-04 01:47 33.94667 -118.40248 120 ft 5 kts 353°
2026-05-04 01:47 33.94702 -118.40253 122 ft 5 kts 353°
2026-05-04 01:47 33.94739 -118.40259 124 ft 5 kts 353°
2026-05-04 01:48 33.94780 -118.40265 124 ft 6 kts 352°
2026-05-04 01:48 33.94827 -118.40284 124 ft 8 kts 339°
2026-05-04 01:48 33.94880 -118.40280 123 ft 5 kts 23°
2026-05-04 01:48 33.94896 -118.40252 122 ft 4 kts 66°
2026-05-04 01:49 33.94904 -118.40219 124 ft 11 kts 79°
2026-05-04 01:49 33.94915 -118.40115 125 ft 13 kts 83°
2026-05-04 01:49 33.94931 -118.39970 125 ft 13 kts 74°
2026-05-04 01:49 33.94968 -118.39918 124 ft 12 kts 24°
2026-05-04 01:50 33.95040 -118.39943 124 ft 11 kts 296°
2026-05-04 01:50 33.95039 -118.39985 124 ft 0 kts 261°
2026-05-04 01:52 33.95039 -118.39989 124 ft 7 kts 261°
2026-05-04 01:52 33.95002 -118.40340 124 ft 75 kts 263°
2026-05-04 01:52 33.94912 -118.41206 126 ft 131 kts 263°
2026-05-04 01:53 33.94777 -118.42479 195 ft 169 kts 262°
2026-05-04 01:53 33.94625 -118.43900 781 ft 170 kts 262°
2026-05-04 01:53 33.94477 -118.45315 1449 ft 173 kts 263°
2026-05-04 01:53 33.94341 -118.46827 1721 ft 190 kts 265°
2026-05-04 01:54 33.94263 -118.48508 1844 ft 211 kts 267°
2026-05-04 01:54 33.94210 -118.50376 1976 ft 235 kts 267°
2026-05-04 01:54 33.94079 -118.52353 2442 ft 244 kts 257°
2026-05-04 01:54 33.93361 -118.54215 3037 ft 249 kts 231°
2026-05-04 01:55 33.91979 -118.55487 3622 ft 256 kts 203°
2026-05-04 01:55 33.90202 -118.55787 4245 ft 265 kts 175°
2026-05-04 01:55 33.88363 -118.55464 4902 ft 268 kts 173°
2026-05-04 01:55 33.86508 -118.55119 5498 ft 272 kts 174°
2026-05-04 01:56 33.84619 -118.54771 6077 ft 276 kts 174°
2026-05-04 01:56 33.82706 -118.54426 6654 ft 280 kts 174°
2026-05-04 01:56 33.80773 -118.54077 7267 ft 281 kts 174°
2026-05-04 01:56 33.78859 -118.53732 7906 ft 281 kts 174°
2026-05-04 01:57 33.76917 -118.53382 8562 ft 281 kts 174°
2026-05-04 01:57 33.74978 -118.53031 9205 ft 282 kts 174°
2026-05-04 01:57 33.73032 -118.52668 9828 ft 283 kts 171°
2026-05-04 01:57 33.71166 -118.51834 10357 ft 291 kts 152°
2026-05-04 01:58 33.69595 -118.50269 10896 ft 299 kts 133°
2026-05-04 01:58 33.68499 -118.48083 11205 ft 318 kts 114°
2026-05-04 01:58 33.67731 -118.45509 11342 ft 336 kts 112°
2026-05-04 01:58 33.66938 -118.42791 11468 ft 353 kts 112°
2026-05-04 01:59 33.66118 -118.39986 11664 ft 366 kts 112°
2026-05-04 01:59 33.65264 -118.37074 12102 ft 371 kts 112°
2026-05-04 01:59 33.64610 -118.34047 12598 ft 379 kts 102°
2026-05-04 01:59 33.64441 -118.30869 13104 ft 385 kts 92°
2026-05-04 02:00 33.64454 -118.27639 13625 ft 388 kts 93°
2026-05-04 02:00 33.64463 -118.24381 14091 ft 391 kts 93°
2026-05-04 02:00 33.64468 -118.21091 14492 ft 396 kts 93°
2026-05-04 02:00 33.64470 -118.17761 14868 ft 402 kts 93°
2026-05-04 02:01 33.64471 -118.14379 15248 ft 407 kts 93°
2026-05-04 02:01 33.64472 -118.10997 15641 ft 412 kts 93°
2026-05-04 02:01 33.64468 -118.07532 16023 ft 417 kts 93°
2026-05-04 02:01 33.64461 -118.04023 16382 ft 423 kts 94°
2026-05-04 02:02 33.64454 -118.00465 16747 ft 429 kts 94°
2026-05-04 02:02 33.64446 -117.96862 17122 ft 434 kts 94°
2026-05-04 02:02 33.64439 -117.93207 17477 ft 439 kts 94°
2026-05-04 02:02 33.64435 -117.89506 17797 ft 446 kts 94°
2026-05-04 02:03 33.64429 -117.85758 18148 ft 451 kts 94°
2026-05-04 02:03 33.64408 -117.82022 18468 ft 454 kts 96°
2026-05-04 02:03 33.64037 -117.78258 18791 ft 452 kts 107°
2026-05-04 02:03 33.63218 -117.74619 19127 ft 452 kts 112°
2026-05-04 02:04 33.62313 -117.70988 19494 ft 454 kts 112°
2026-05-04 02:04 33.61407 -117.67343 19884 ft 457 kts 112°
2026-05-04 02:04 33.60499 -117.63674 20255 ft 460 kts 112°
2026-05-04 02:04 33.59596 -117.60020 20636 ft 463 kts 112°
2026-05-04 02:05 33.58667 -117.56261 21001 ft 466 kts 112°
2026-05-04 02:05 33.57755 -117.52572 21348 ft 468 kts 112°
2026-05-04 02:05 33.56826 -117.48808 21700 ft 471 kts 112°
2026-05-04 02:05 33.55889 -117.45024 22012 ft 474 kts 112°
2026-05-04 02:06 33.54944 -117.41217 22354 ft 476 kts 112°
2026-05-04 02:06 33.53998 -117.37401 22665 ft 479 kts 112°
2026-05-04 02:06 33.53042 -117.33566 22971 ft 481 kts 112°
2026-05-04 02:06 33.52077 -117.29713 23271 ft 484 kts 112°
2026-05-04 02:07 33.51123 -117.25821 23570 ft 488 kts 109°
2026-05-04 02:07 33.50537 -117.21825 23797 ft 497 kts 98°
2026-05-04 02:07 33.50415 -117.17667 24009 ft 502 kts 94°
2026-05-04 02:07 33.50372 -117.13471 24241 ft 504 kts 94°
2026-05-04 02:08 33.50315 -117.09263 24496 ft 506 kts 94°
2026-05-04 02:08 33.50251 -117.05021 24728 ft 509 kts 94°
2026-05-04 02:08 33.50186 -117.00759 24959 ft 512 kts 94°
2026-05-04 02:08 33.50122 -116.96476 25180 ft 515 kts 94°
2026-05-04 02:09 33.50055 -116.92168 25407 ft 518 kts 94°
2026-05-04 02:09 33.49987 -116.87828 25609 ft 521 kts 94°
2026-05-04 02:09 33.49920 -116.83524 25817 ft 523 kts 94°
2026-05-04 02:09 33.49853 -116.79165 26083 ft 524 kts 94°
2026-05-04 02:10 33.49785 -116.74773 26293 ft 527 kts 94°
2026-05-04 02:10 33.49716 -116.70369 26498 ft 530 kts 94°
2026-05-04 02:10 33.49646 -116.65944 26699 ft 532 kts 94°
2026-05-04 02:10 33.49597 -116.63000 26828 ft 534 kts 94°
2026-05-04 02:11 33.49491 -116.57020 27044 ft 537 kts 94°
2026-05-04 02:11 33.49410 -116.52619 27242 ft 539 kts 94°
2026-05-04 02:11 33.49323 -116.48093 27444 ft 541 kts 94°
2026-05-04 02:11 33.49236 -116.43569 27644 ft 544 kts 94°
2026-05-04 02:12 33.49153 -116.39023 27863 ft 546 kts 94°
2026-05-04 02:12 33.49080 -116.34461 28024 ft 549 kts 94°
2026-05-04 02:12 33.49016 -116.29877 28158 ft 552 kts 94°
2026-05-04 02:12 33.48955 -116.25271 28359 ft 553 kts 94°
2026-05-04 02:13 33.48893 -116.20635 28465 ft 557 kts 94°
2026-05-04 02:13 33.48823 -116.15989 28608 ft 559 kts 94°
2026-05-04 02:13 33.48745 -116.11322 28752 ft 562 kts 94°
2026-05-04 02:13 33.48793 -116.06607 28915 ft 567 kts 87°
2026-05-04 02:14 33.49327 -116.01919 29085 ft 570 kts 78°
2026-05-04 02:14 33.50361 -115.97390 29327 ft 569 kts 69°
2026-05-04 02:14 33.51678 -115.92921 29552 ft 570 kts 68°
2026-05-04 02:14 33.52999 -115.88438 29867 ft 569 kts 68°
2026-05-04 02:15 33.54313 -115.83960 30096 ft 569 kts 68°
2026-05-04 02:15 33.55623 -115.79478 30310 ft 570 kts 68°
2026-05-04 02:15 33.56933 -115.74977 30484 ft 571 kts 69°
2026-05-04 02:15 33.58242 -115.70460 30682 ft 572 kts 69°
2026-05-04 02:16 33.59549 -115.65945 30868 ft 573 kts 69°
2026-05-04 02:16 33.60792 -115.61444 31081 ft 573 kts 74°
2026-05-04 02:16 33.61532 -115.56752 31335 ft 572 kts 85°
2026-05-04 02:16 33.61628 -115.51986 31554 ft 570 kts 94°
2026-05-04 02:17 33.61512 -115.47220 31735 ft 571 kts 94°
2026-05-04 02:17 33.61395 -115.42456 31927 ft 572 kts 94°
2026-05-04 02:17 33.61278 -115.37682 32100 ft 573 kts 94°
2026-05-04 02:17 33.61160 -115.32892 32284 ft 573 kts 95°
2026-05-04 02:18 33.61040 -115.28109 32492 ft 573 kts 94°
2026-05-04 02:18 33.60924 -115.23384 32702 ft 573 kts 94°
2026-05-04 02:18 33.60688 -115.13824 32757 ft 571 kts 94°
2026-05-04 02:19 33.60427 -115.04304 32759 ft 570 kts 95°
2026-05-04 02:19 33.60154 -114.94840 32768 ft 570 kts 95°
2026-05-04 02:20 33.59879 -114.85328 32756 ft 571 kts 95°
2026-05-04 02:20 33.59441 -114.75826 32757 ft 567 kts 102°
2026-05-04 02:21 33.57817 -114.66627 32760 ft 563 kts 108°
2026-05-04 02:21 33.56082 -114.57462 32765 ft 564 kts 108°
2026-05-04 02:22 33.54349 -114.48287 32764 ft 564 kts 108°
2026-05-04 02:22 33.52624 -114.39181 32782 ft 564 kts 108°
2026-05-04 02:23 33.50872 -114.30012 32799 ft 564 kts 108°
2026-05-04 02:23 33.49108 -114.20848 32793 ft 564 kts 108°
2026-05-04 02:24 33.47341 -114.11686 32796 ft 564 kts 108°
2026-05-04 02:24 33.45575 -114.02547 32803 ft 564 kts 108°
2026-05-04 02:25 33.43804 -113.93393 32861 ft 564 kts 108°
2026-05-04 02:25 33.42018 -113.84255 32936 ft 563 kts 108°
2026-05-04 02:26 33.40219 -113.75115 32994 ft 563 kts 108°
2026-05-04 02:26 33.38328 -113.66068 32995 ft 562 kts 110°
2026-05-04 02:27 33.36192 -113.57062 32987 ft 562 kts 111°
2026-05-04 02:27 33.34008 -113.48093 32934 ft 562 kts 111°
2026-05-04 02:28 33.32948 -113.43653 32789 ft 562 kts 111°
2026-05-04 02:28 33.31872 -113.39086 32789 ft 563 kts 110°
2026-05-04 02:28 33.29779 -113.30108 32789 ft 563 kts 110°
2026-05-04 02:29 33.27662 -113.21078 32787 ft 564 kts 110°
2026-05-04 02:29 33.25522 -113.12061 32766 ft 564 kts 111°
2026-05-04 02:30 33.23370 -113.03045 32785 ft 564 kts 110°
2026-05-04 02:30 33.21226 -112.94092 32803 ft 564 kts 110°
2026-05-04 02:31 33.19072 -112.85066 32817 ft 564 kts 110°
2026-05-04 02:31 33.16907 -112.76047 32829 ft 564 kts 110°
2026-05-04 02:32 33.14732 -112.67028 32822 ft 565 kts 110°
2026-05-04 02:32 33.12921 -112.59538 32818 ft 565 kts 110°
2026-05-04 02:33 33.10731 -112.50545 32799 ft 564 kts 111°
2026-05-04 02:33 33.08181 -112.40097 32816 ft 565 kts 110°
2026-05-04 02:34 33.06337 -112.32552 32828 ft 566 kts 110°
2026-05-04 02:34 33.04133 -112.23545 32831 ft 566 kts 110°
2026-05-04 02:35 33.01935 -112.14605 32839 ft 566 kts 110°
2026-05-04 02:35 32.99706 -112.05613 32867 ft 566 kts 110°
2026-05-04 02:36 32.97473 -111.96598 32849 ft 566 kts 110°
2026-05-04 02:36 32.95239 -111.87606 32883 ft 566 kts 110°
2026-05-04 02:37 32.93002 -111.78612 32899 ft 566 kts 110°
2026-05-04 02:37 32.90757 -111.69630 32890 ft 566 kts 110°
2026-05-04 02:38 32.88509 -111.60708 32879 ft 566 kts 110°
2026-05-04 02:38 32.86227 -111.51709 32852 ft 566 kts 110°
2026-05-04 02:39 32.83958 -111.42734 32856 ft 567 kts 110°
2026-05-04 02:39 32.81688 -111.33761 32868 ft 566 kts 110°
2026-05-04 02:40 32.79421 -111.24848 32881 ft 566 kts 111°
2026-05-04 02:40 32.77133 -111.15903 32895 ft 565 kts 111°
2026-05-04 02:41 32.74845 -111.06957 32890 ft 565 kts 110°
2026-05-04 02:41 32.72541 -110.98004 32882 ft 565 kts 110°
2026-05-04 02:42 32.70250 -110.89126 32901 ft 565 kts 110°
2026-05-04 02:42 32.67936 -110.80202 32886 ft 565 kts 110°
2026-05-04 02:43 32.65623 -110.71286 32907 ft 565 kts 110°
2026-05-04 02:43 32.63305 -110.62373 32911 ft 565 kts 110°
2026-05-04 02:44 32.60973 -110.53456 32913 ft 565 kts 110°
2026-05-04 02:44 32.58650 -110.44605 32934 ft 565 kts 110°
2026-05-04 02:45 32.56305 -110.35704 32927 ft 565 kts 110°
2026-05-04 02:45 32.53959 -110.26802 32922 ft 565 kts 110°
2026-05-04 02:46 32.51610 -110.17916 32900 ft 564 kts 110°
2026-05-04 02:46 32.49259 -110.09040 32922 ft 564 kts 110°
2026-05-04 02:47 32.46900 -110.00164 32893 ft 564 kts 110°
2026-05-04 02:47 32.44542 -109.91351 32875 ft 564 kts 110°
2026-05-04 02:48 32.42166 -109.82488 32870 ft 564 kts 110°
2026-05-04 02:48 32.39782 -109.73629 32868 ft 564 kts 110°
2026-05-04 02:49 32.37398 -109.64788 32825 ft 564 kts 110°
2026-05-04 02:49 32.35006 -109.55952 32838 ft 563 kts 110°
2026-05-04 02:50 32.32615 -109.47179 32855 ft 563 kts 110°
2026-05-04 02:50 32.30213 -109.38347 32863 ft 564 kts 110°
2026-05-04 02:51 32.27804 -109.29520 32872 ft 564 kts 109°
2026-05-04 02:51 32.26228 -109.20443 32866 ft 565 kts 97°
2026-05-04 02:52 32.25158 -109.11289 32867 ft 565 kts 97°
2026-05-04 02:52 32.24075 -109.02086 32877 ft 564 kts 97°
2026-05-04 02:53 32.22971 -108.92912 32869 ft 563 kts 97°
2026-05-04 02:53 32.21869 -108.83783 32863 ft 563 kts 98°
2026-05-04 02:54 32.20758 -108.74604 33024 ft 564 kts 97°
2026-05-04 02:54 32.19646 -108.65442 33026 ft 563 kts 97°
2026-05-04 02:55 32.17957 -108.51696 32981 ft 563 kts 97°
2026-05-04 02:56 32.16828 -108.42595 32943 ft 563 kts 97°
2026-05-04 02:56 32.15690 -108.33452 32912 ft 562 kts 97°
2026-05-04 02:57 32.14553 -108.24320 32908 ft 561 kts 97°
2026-05-04 02:57 32.13417 -108.15265 32907 ft 561 kts 97°
2026-05-04 02:58 32.12258 -108.06159 32902 ft 560 kts 97°
2026-05-04 02:58 32.11096 -107.97067 32903 ft 560 kts 97°
2026-05-04 02:59 32.09934 -107.87985 32904 ft 560 kts 97°
2026-05-04 02:59 32.08763 -107.78883 33016 ft 560 kts 97°
2026-05-04 03:00 32.07588 -107.69839 33018 ft 560 kts 97°
2026-05-04 03:00 32.06404 -107.60758 33008 ft 560 kts 97°
2026-05-04 03:01 32.05217 -107.51698 32963 ft 557 kts 97°
2026-05-04 03:01 32.04032 -107.42661 32922 ft 557 kts 97°
2026-05-04 03:02 32.02843 -107.33686 32917 ft 557 kts 97°
2026-05-04 03:02 32.01632 -107.24654 32914 ft 557 kts 97°
2026-05-04 03:03 32.00413 -107.15620 32920 ft 557 kts 97°
2026-05-04 03:03 31.99200 -107.06600 32936 ft 557 kts 97°
2026-05-04 03:04 31.97986 -106.97630 32917 ft 557 kts 97°
2026-05-04 03:04 31.96756 -106.88620 32923 ft 557 kts 97°
2026-05-04 03:04 31.96140 -106.84111 33043 ft 557 kts 97°
2026-05-04 03:05 31.95524 -106.79603 33066 ft 557 kts 97°
2026-05-04 03:05 31.94282 -106.70574 33080 ft 558 kts 98°
2026-05-04 03:06 31.93030 -106.61610 33096 ft 557 kts 98°
2026-05-04 03:06 31.91768 -106.52612 33043 ft 557 kts 98°
2026-05-04 03:07 31.90510 -106.43624 33065 ft 555 kts 98°
2026-05-04 03:07 31.89255 -106.34643 33091 ft 556 kts 98°
2026-05-04 03:08 31.87985 -106.25656 33068 ft 555 kts 98°
2026-05-04 03:08 31.86703 -106.16696 33023 ft 554 kts 98°
2026-05-04 03:09 31.85419 -106.07751 32940 ft 554 kts 98°
2026-05-04 03:09 31.84138 -105.98809 32905 ft 555 kts 98°
2026-05-04 03:10 31.82853 -105.89896 32899 ft 556 kts 98°
2026-05-04 03:10 31.81544 -105.80923 32896 ft 557 kts 98°
2026-05-04 03:11 31.80228 -105.71923 32907 ft 557 kts 98°
2026-05-04 03:11 31.78914 -105.62933 32895 ft 558 kts 99°
2026-05-04 03:12 31.77598 -105.53994 32912 ft 558 kts 99°
2026-05-04 03:12 31.76266 -105.44990 32923 ft 558 kts 99°
2026-05-04 03:13 31.74922 -105.35998 32927 ft 558 kts 99°
2026-05-04 03:13 31.73576 -105.27006 32928 ft 558 kts 99°
2026-05-04 03:14 31.72223 -105.18047 32946 ft 556 kts 99°
2026-05-04 03:14 31.70871 -105.09109 32919 ft 554 kts 100°
2026-05-04 03:15 31.69528 -105.00259 32954 ft 552 kts 100°
2026-05-04 03:15 31.68177 -104.91393 32962 ft 550 kts 100°
2026-05-04 03:16 31.67055 -104.84043 32957 ft 548 kts 100°
2026-05-04 03:16 31.65482 -104.73831 32956 ft 545 kts 100°
2026-05-04 03:17 31.64130 -104.65085 32952 ft 544 kts 100°
2026-05-04 03:17 31.62999 -104.57828 32947 ft 544 kts 100°
2026-05-04 03:18 31.61626 -104.49098 32954 ft 543 kts 100°
2026-05-04 03:18 31.60249 -104.40368 32951 ft 543 kts 100°
2026-05-04 03:19 31.58881 -104.31640 32954 ft 543 kts 100°
2026-05-04 03:19 31.57516 -104.22970 32950 ft 543 kts 100°
2026-05-04 03:20 31.56135 -104.14267 32953 ft 543 kts 101°
2026-05-04 03:20 31.54738 -104.05563 32925 ft 542 kts 101°
2026-05-04 03:21 31.53343 -103.96877 32939 ft 541 kts 101°
2026-05-04 03:21 31.51945 -103.88218 32934 ft 540 kts 101°
2026-05-04 03:22 31.50546 -103.79614 32961 ft 540 kts 101°
2026-05-04 03:22 31.49141 -103.70963 32993 ft 539 kts 101°
2026-05-04 03:23 31.47734 -103.62319 33014 ft 539 kts 101°
2026-05-04 03:23 31.46357 -103.53664 33030 ft 539 kts 99°
2026-05-04 03:24 31.45288 -103.45027 33034 ft 539 kts 97°
2026-05-04 03:24 31.44340 -103.36326 33020 ft 538 kts 97°
2026-05-04 03:25 31.43331 -103.27640 32995 ft 537 kts 98°
2026-05-04 03:25 31.42240 -103.18994 32969 ft 537 kts 98°
2026-05-04 03:26 31.41138 -103.10401 32948 ft 536 kts 98°
2026-05-04 03:26 31.40054 -103.01759 32941 ft 535 kts 98°
2026-05-04 03:27 31.38980 -102.93143 32947 ft 534 kts 98°
2026-05-04 03:27 31.37889 -102.84555 32956 ft 533 kts 98°
2026-05-04 03:28 31.36801 -102.76018 33007 ft 533 kts 98°
2026-05-04 03:28 31.35708 -102.67442 32934 ft 532 kts 98°
2026-05-04 03:29 31.34601 -102.58864 32942 ft 533 kts 98°
2026-05-04 03:29 31.33489 -102.50280 32945 ft 534 kts 98°
2026-05-04 03:30 31.32380 -102.41740 32959 ft 534 kts 98°
2026-05-04 03:30 31.31249 -102.33127 32989 ft 535 kts 98°
2026-05-04 03:31 31.30115 -102.24502 32992 ft 536 kts 98°
2026-05-04 03:31 31.28981 -102.15910 33004 ft 537 kts 98°
2026-05-04 03:32 31.27829 -102.07275 33008 ft 537 kts 98°
2026-05-04 03:32 31.26679 -101.98688 33015 ft 537 kts 98°
2026-05-04 03:33 31.25527 -101.90052 33015 ft 537 kts 98°
2026-05-04 03:33 31.24364 -101.81423 32999 ft 536 kts 98°
2026-05-04 03:34 31.23194 -101.72876 33026 ft 536 kts 98°
2026-05-04 03:34 31.22017 -101.64276 33047 ft 535 kts 98°
2026-05-04 03:35 31.20854 -101.55678 33047 ft 534 kts 98°
2026-05-04 03:35 31.19669 -101.47100 33035 ft 534 kts 99°
2026-05-04 03:36 31.18484 -101.38596 33036 ft 534 kts 99°
2026-05-04 03:36 31.17292 -101.30025 33042 ft 534 kts 99°
2026-05-04 03:37 31.16100 -101.21459 33048 ft 534 kts 99°
2026-05-04 03:37 31.14895 -101.12894 33049 ft 534 kts 99°
2026-05-04 03:38 31.13685 -101.04331 33050 ft 534 kts 99°
2026-05-04 03:38 31.12476 -100.95825 33046 ft 534 kts 99°
2026-05-04 03:39 31.11252 -100.87274 33049 ft 534 kts 99°
2026-05-04 03:39 31.10028 -100.78713 33054 ft 534 kts 99°
2026-05-04 03:40 31.08799 -100.70204 33060 ft 534 kts 99°
2026-05-04 03:40 31.07562 -100.61652 33039 ft 534 kts 99°
2026-05-04 03:41 31.06331 -100.53100 33047 ft 534 kts 99°
2026-05-04 03:41 31.05089 -100.44600 33056 ft 534 kts 99°
2026-05-04 03:42 31.03837 -100.36046 33054 ft 535 kts 99°
2026-05-04 03:42 31.02651 -100.27479 33057 ft 534 kts 98°
2026-05-04 03:43 31.01472 -100.18911 33058 ft 534 kts 99°
2026-05-04 03:43 31.00280 -100.10414 33052 ft 534 kts 99°
2026-05-04 03:44 30.99060 -100.01862 33047 ft 534 kts 99°
2026-05-04 03:44 30.97841 -99.93311 33042 ft 534 kts 99°
2026-05-04 03:45 30.96617 -99.84764 33042 ft 534 kts 99°
2026-05-04 03:45 30.95390 -99.76271 33045 ft 535 kts 99°
2026-05-04 03:46 30.94145 -99.67693 33040 ft 536 kts 99°
2026-05-04 03:46 30.92899 -99.59111 33045 ft 537 kts 99°
2026-05-04 03:47 30.91658 -99.50586 33057 ft 537 kts 99°
2026-05-04 03:47 30.90404 -99.42012 33065 ft 537 kts 99°
2026-05-04 03:48 30.89139 -99.33438 33051 ft 537 kts 99°
2026-05-04 03:48 30.87858 -99.24872 33068 ft 537 kts 99°
2026-05-04 03:49 30.86570 -99.16306 33084 ft 537 kts 99°
2026-05-04 03:49 30.85294 -99.07754 33094 ft 536 kts 99°
2026-05-04 03:50 30.84017 -98.99246 33097 ft 536 kts 99°
2026-05-04 03:50 30.82725 -98.90693 33121 ft 536 kts 99°
2026-05-04 03:51 30.81435 -98.82148 33130 ft 536 kts 99°
2026-05-04 03:51 30.80131 -98.73597 33136 ft 536 kts 99°
2026-05-04 03:52 30.78831 -98.65118 33145 ft 536 kts 99°
2026-05-04 03:52 30.77521 -98.56573 33134 ft 537 kts 99°
2026-05-04 03:53 30.76199 -98.48021 33127 ft 537 kts 99°
2026-05-04 03:53 30.74871 -98.39475 33144 ft 537 kts 99°
2026-05-04 03:54 30.73533 -98.30927 33164 ft 537 kts 99°
2026-05-04 03:54 30.72191 -98.22375 33162 ft 537 kts 99°
2026-05-04 03:55 30.70860 -98.13888 33152 ft 537 kts 99°
2026-05-04 03:55 30.69505 -98.05333 33115 ft 537 kts 99°
2026-05-04 03:56 30.68146 -97.96791 33148 ft 537 kts 99°
2026-05-04 03:56 30.66791 -97.88241 33147 ft 537 kts 99°
2026-05-04 03:57 30.65439 -97.79761 33153 ft 537 kts 99°
2026-05-04 03:57 30.64070 -97.71234 33156 ft 537 kts 99°
2026-05-04 03:58 30.62005 -97.58493 33162 ft 537 kts 100°
2026-05-04 03:58 30.60618 -97.49971 33148 ft 536 kts 99°
2026-05-04 03:59 30.59226 -97.41459 33114 ft 536 kts 99°
2026-05-04 03:59 30.57838 -97.32963 33117 ft 536 kts 99°
2026-05-04 04:00 30.56438 -97.24451 33126 ft 536 kts 100°
2026-05-04 04:00 30.55040 -97.16011 33128 ft 536 kts 100°
2026-05-04 04:01 30.53624 -97.07500 33125 ft 536 kts 100°
2026-05-04 04:01 30.52211 -96.98992 33136 ft 536 kts 100°
2026-05-04 04:02 30.50796 -96.90547 33156 ft 536 kts 100°
2026-05-04 04:02 30.49363 -96.82062 33190 ft 536 kts 100°
2026-05-04 04:03 30.47931 -96.73567 33191 ft 536 kts 100°
2026-05-04 04:03 30.46490 -96.65071 33185 ft 536 kts 100°
2026-05-04 04:04 30.45058 -96.56639 33162 ft 536 kts 100°
2026-05-04 04:04 30.43612 -96.48163 33126 ft 536 kts 100°
2026-05-04 04:05 30.42151 -96.39677 33132 ft 536 kts 100°
2026-05-04 04:05 30.40690 -96.31201 33113 ft 536 kts 100°
2026-05-04 04:06 30.39233 -96.22770 33082 ft 537 kts 100°
2026-05-04 04:06 30.37757 -96.14292 33051 ft 537 kts 100°
2026-05-04 04:07 30.36277 -96.05815 32981 ft 537 kts 100°
2026-05-04 04:07 30.35039 -95.98752 32962 ft 536 kts 100°
2026-05-04 04:08 30.33313 -95.88906 33004 ft 537 kts 100°
2026-05-04 04:08 30.32072 -95.81863 33006 ft 537 kts 100°
2026-05-04 04:09 30.30575 -95.73377 33066 ft 537 kts 100°
2026-05-04 04:09 30.29070 -95.64912 33062 ft 537 kts 100°
2026-05-04 04:10 30.27557 -95.56438 33133 ft 537 kts 100°
2026-05-04 04:10 30.26050 -95.48023 33162 ft 536 kts 100°
2026-05-04 04:11 30.24519 -95.39541 33171 ft 536 kts 100°
2026-05-04 04:11 30.23002 -95.31143 33165 ft 536 kts 100°
2026-05-04 04:12 30.21473 -95.22709 33160 ft 536 kts 100°
2026-05-04 04:12 30.19938 -95.14279 33157 ft 536 kts 100°
2026-05-04 04:13 30.18405 -95.05837 33157 ft 535 kts 100°
2026-05-04 04:13 30.16860 -94.97410 33153 ft 535 kts 100°
2026-05-04 04:14 30.15316 -94.89048 33157 ft 536 kts 100°
2026-05-04 04:14 30.13754 -94.80612 33141 ft 537 kts 100°
2026-05-04 04:15 30.12195 -94.72163 33145 ft 538 kts 100°
2026-05-04 04:15 30.10620 -94.63705 33142 ft 538 kts 100°
2026-05-04 04:16 30.09031 -94.55248 33164 ft 538 kts 100°
2026-05-04 04:16 30.07460 -94.46858 33168 ft 538 kts 100°
2026-05-04 04:17 30.05872 -94.38410 33171 ft 538 kts 100°
2026-05-04 04:17 30.04272 -94.29967 33135 ft 537 kts 100°
2026-05-04 04:18 30.02674 -94.21588 33147 ft 538 kts 100°
2026-05-04 04:18 30.01065 -94.13157 33165 ft 538 kts 100°
2026-05-04 04:19 29.99459 -94.04713 33166 ft 537 kts 100°
2026-05-04 04:19 29.97848 -93.96284 33163 ft 537 kts 100°
2026-05-04 04:20 29.96239 -93.87917 33162 ft 538 kts 100°
2026-05-04 04:20 29.94605 -93.79486 33210 ft 538 kts 100°
2026-05-04 04:21 29.92977 -93.71059 33182 ft 537 kts 100°
2026-05-04 04:21 29.91348 -93.62706 33182 ft 536 kts 100°
2026-05-04 04:22 29.89703 -93.54314 33183 ft 536 kts 100°
2026-05-04 04:22 29.88058 -93.45924 33185 ft 535 kts 100°
2026-05-04 04:23 29.86414 -93.37549 33184 ft 535 kts 100°
2026-05-04 04:23 29.84774 -93.29235 33183 ft 535 kts 100°
2026-05-04 04:24 29.83127 -93.20879 33182 ft 535 kts 100°
2026-05-04 04:24 29.81472 -93.12517 33183 ft 535 kts 101°
2026-05-04 04:25 29.79807 -93.04172 33193 ft 535 kts 101°
2026-05-04 04:25 29.78131 -92.95828 33161 ft 534 kts 101°
2026-05-04 04:26 29.76457 -92.87534 33164 ft 535 kts 101°
2026-05-04 04:26 29.74777 -92.79188 33171 ft 535 kts 101°
2026-05-04 04:27 29.73094 -92.70829 33179 ft 535 kts 101°
2026-05-04 04:27 29.71415 -92.62541 33202 ft 535 kts 101°
2026-05-04 04:28 29.69723 -92.54204 33196 ft 534 kts 101°
2026-05-04 04:28 29.68021 -92.45871 33182 ft 534 kts 101°
2026-05-04 04:29 29.66325 -92.37612 33178 ft 534 kts 101°
2026-05-04 04:29 29.64614 -92.29311 33183 ft 533 kts 101°
2026-05-04 04:30 29.62899 -92.20990 33178 ft 534 kts 101°
2026-05-04 04:30 29.61179 -92.12664 33171 ft 534 kts 101°
2026-05-04 04:31 29.59465 -92.04393 33171 ft 535 kts 101°
2026-05-04 04:31 29.57728 -91.96077 33175 ft 535 kts 101°
2026-05-04 04:32 29.55988 -91.87764 33196 ft 536 kts 101°
2026-05-04 04:32 29.54244 -91.79424 33177 ft 537 kts 101°
2026-05-04 04:33 29.52497 -91.71141 33133 ft 537 kts 101°
2026-05-04 04:33 29.50735 -91.62807 33176 ft 537 kts 101°
2026-05-04 04:34 29.48970 -91.54478 33195 ft 536 kts 101°
2026-05-04 04:34 29.47197 -91.46151 33194 ft 536 kts 101°
2026-05-04 04:35 29.45433 -91.37825 33187 ft 537 kts 101°
2026-05-04 04:35 29.43651 -91.29498 33187 ft 537 kts 101°
2026-05-04 04:36 29.41870 -91.21219 33186 ft 538 kts 101°
2026-05-04 04:36 29.40072 -91.12882 33216 ft 538 kts 101°
2026-05-04 04:37 29.36462 -90.96196 33193 ft 539 kts 101°
2026-05-04 04:38 29.34663 -90.87910 33187 ft 540 kts 101°
2026-05-04 04:38 29.32842 -90.79559 33187 ft 540 kts 102°
2026-05-04 04:39 29.31002 -90.71182 33195 ft 540 kts 102°
2026-05-04 04:39 29.29176 -90.62885 33192 ft 540 kts 102°
2026-05-04 04:40 29.27343 -90.54529 33195 ft 540 kts 101°
2026-05-04 04:40 29.25503 -90.46164 33197 ft 540 kts 102°
2026-05-04 04:41 29.23668 -90.37873 33195 ft 540 kts 102°
2026-05-04 04:41 29.21806 -90.29533 33193 ft 540 kts 102°
2026-05-04 04:42 29.19952 -90.21219 33191 ft 541 kts 102°
2026-05-04 04:42 29.18088 -90.12876 33190 ft 541 kts 102°
2026-05-04 04:43 29.15431 -90.04796 33185 ft 543 kts 112°
2026-05-04 04:43 29.12450 -89.96843 33200 ft 543 kts 112°
2026-05-04 04:44 29.09510 -89.88941 33194 ft 543 kts 112°
2026-05-04 04:44 29.06537 -89.80992 33190 ft 543 kts 112°
2026-05-04 04:45 29.03550 -89.73069 33191 ft 543 kts 112°
2026-05-04 04:47 28.93099 -89.45389 33158 ft 543 kts 113°
2026-05-04 04:47 28.90091 -89.37483 33176 ft 543 kts 113°
2026-05-04 04:48 28.87078 -89.29565 33181 ft 543 kts 113°
2026-05-04 04:49 28.79562 -89.09866 33196 ft 543 kts 113°
2026-05-04 04:49 28.76528 -89.01969 33195 ft 543 kts 113°
2026-05-04 04:50 28.73496 -88.94067 33194 ft 543 kts 113°
2026-05-04 04:50 28.70467 -88.86176 33193 ft 543 kts 113°
2026-05-04 04:51 28.67443 -88.78338 33200 ft 543 kts 113°
2026-05-04 04:51 28.64396 -88.70461 33162 ft 543 kts 114°
2026-05-04 04:52 28.61341 -88.62590 33168 ft 544 kts 114°
2026-05-04 04:52 28.58283 -88.54706 33171 ft 544 kts 114°
2026-05-04 04:53 28.55224 -88.46814 33207 ft 544 kts 114°
2026-05-04 04:53 28.52169 -88.38996 33197 ft 544 kts 114°
2026-05-04 04:54 28.49085 -88.31117 33188 ft 545 kts 114°
2026-05-04 04:54 28.46012 -88.23242 33185 ft 545 kts 114°
2026-05-04 04:55 28.42948 -88.15412 33183 ft 545 kts 114°
2026-05-04 04:55 28.39851 -88.07537 33197 ft 545 kts 114°
2026-05-04 04:56 28.37111 -87.99510 33187 ft 544 kts 107°
2026-05-04 04:56 28.34783 -87.91380 33143 ft 544 kts 107°
2026-05-04 04:57 28.32813 -87.84573 33155 ft 545 kts 107°
2026-05-04 04:57 28.30438 -87.76398 33168 ft 545 kts 107°
2026-05-04 04:58 28.28059 -87.68211 33188 ft 545 kts 107°
2026-05-04 04:58 28.25694 -87.60088 33183 ft 546 kts 107°
2026-05-04 04:59 28.23308 -87.51902 33177 ft 546 kts 107°
2026-05-04 04:59 28.20918 -87.43726 33178 ft 546 kts 107°
2026-05-04 05:00 28.18519 -87.35541 33177 ft 546 kts 107°
2026-05-04 05:01 28.14933 -87.23333 33177 ft 546 kts 108°
2026-05-04 05:01 28.12526 -87.15158 33173 ft 546 kts 108°
2026-05-04 05:02 28.10110 -87.06991 33171 ft 546 kts 108°
2026-05-04 05:02 28.07690 -86.98822 33172 ft 546 kts 108°
2026-05-04 05:03 28.05280 -86.90708 33191 ft 546 kts 108°
2026-05-04 05:04 28.00422 -86.74407 33145 ft 546 kts 108°
2026-05-04 05:04 27.98057 -86.66284 33160 ft 546 kts 107°
2026-05-04 05:06 27.88605 -86.33649 33160 ft 546 kts 108°
2026-05-04 05:07 27.86215 -86.25482 33161 ft 547 kts 108°
2026-05-04 05:07 27.83819 -86.17321 33181 ft 547 kts 108°
2026-05-04 05:09 27.73000 -85.80664 33158 ft 547 kts 109°
2026-05-04 05:10 27.70592 -85.72556 33147 ft 547 kts 109°
2026-05-04 05:10 27.68163 -85.64407 33149 ft 547 kts 109°
2026-05-04 05:11 27.65731 -85.56271 33146 ft 547 kts 109°
2026-05-04 05:11 27.63296 -85.48129 33147 ft 547 kts 109°
2026-05-04 05:12 27.60865 -85.40050 33157 ft 547 kts 109°
2026-05-04 05:12 27.58725 -85.31825 33144 ft 546 kts 99°
2026-05-04 05:13 27.57283 -85.23397 33140 ft 546 kts 100°
2026-05-04 05:13 27.55814 -85.14977 33141 ft 547 kts 100°
2026-05-04 05:14 27.54349 -85.06602 33139 ft 547 kts 100°
2026-05-04 05:14 27.52871 -84.98188 33154 ft 547 kts 101°
2026-05-04 05:15 27.51391 -84.89836 33138 ft 546 kts 101°
2026-05-04 05:15 27.49902 -84.81434 33137 ft 546 kts 101°
2026-05-04 05:16 27.48422 -84.73068 33131 ft 546 kts 101°
2026-05-04 05:16 27.46928 -84.64661 33130 ft 546 kts 101°
2026-05-04 05:17 27.45435 -84.56270 33128 ft 546 kts 101°
2026-05-04 05:17 27.43932 -84.47939 33129 ft 546 kts 102°
2026-05-04 05:18 27.42452 -84.39537 33126 ft 546 kts 97°
2026-05-04 05:18 27.42022 -84.31022 33125 ft 544 kts 90°
2026-05-04 05:19 27.41796 -84.22555 33129 ft 544 kts 90°
2026-05-04 05:19 27.41548 -84.14039 33125 ft 544 kts 90°
2026-05-04 05:20 27.41304 -84.05525 33121 ft 544 kts 90°
2026-05-04 05:20 27.41065 -83.97088 33121 ft 544 kts 90°
2026-05-04 05:21 27.40815 -83.88552 33112 ft 543 kts 91°
2026-05-04 05:21 27.40562 -83.80052 33121 ft 543 kts 91°
2026-05-04 05:22 27.40304 -83.71564 33120 ft 542 kts 91°
2026-05-04 05:22 27.40037 -83.63125 33120 ft 542 kts 91°
2026-05-04 05:23 27.39765 -83.54682 33117 ft 541 kts 91°
2026-05-04 05:23 27.39488 -83.46198 33115 ft 541 kts 92°
2026-05-04 05:24 27.39209 -83.37767 33115 ft 540 kts 92°
2026-05-04 05:24 27.38924 -83.29313 33116 ft 540 kts 92°
2026-05-04 05:25 27.38627 -83.20855 33116 ft 540 kts 92°
2026-05-04 05:25 27.37992 -83.12507 33106 ft 537 kts 104°
2026-05-04 05:26 27.35975 -83.04466 33115 ft 533 kts 110°
2026-05-04 05:26 27.33844 -82.96462 33116 ft 533 kts 110°
2026-05-04 05:28 27.23561 -82.65954 32681 ft 502 kts 122°
2026-05-04 05:29 27.22028 -82.62481 32577 ft 501 kts 122°
2026-05-04 05:29 27.20480 -82.58974 32451 ft 500 kts 122°
2026-05-04 05:29 27.18930 -82.55470 32343 ft 500 kts 122°
2026-05-04 05:29 27.17377 -82.51963 32216 ft 500 kts 122°
2026-05-04 05:31 27.06647 -82.27806 30525 ft 489 kts 122°
2026-05-04 05:31 27.05132 -82.24399 30285 ft 488 kts 122°
2026-05-04 05:32 27.03616 -82.20990 30036 ft 487 kts 122°
2026-05-04 05:32 27.02106 -82.17597 29783 ft 485 kts 122°
2026-05-04 05:32 27.00619 -82.14263 29511 ft 482 kts 122°
2026-05-04 05:33 26.97627 -82.07578 28966 ft 475 kts 123°
2026-05-04 05:33 26.95930 -82.04433 28705 ft 465 kts 133°
2026-05-04 05:33 26.93924 -82.01656 28386 ft 454 kts 142°
2026-05-04 05:33 26.91779 -81.99135 28141 ft 451 kts 142°
2026-05-04 05:34 26.89614 -81.96585 27885 ft 449 kts 142°
2026-05-04 05:34 26.87470 -81.94053 27631 ft 447 kts 142°
2026-05-04 05:34 26.85339 -81.91533 27376 ft 444 kts 142°
2026-05-04 05:34 26.83226 -81.89030 27127 ft 441 kts 141°
2026-05-04 05:35 26.81124 -81.86541 26875 ft 439 kts 141°
2026-05-04 05:35 26.79026 -81.84061 26627 ft 436 kts 141°
2026-05-04 05:35 26.76943 -81.81605 26378 ft 434 kts 142°
2026-05-04 05:35 26.74857 -81.79166 25914 ft 434 kts 142°
2026-05-04 05:36 26.72796 -81.76775 25590 ft 429 kts 142°
2026-05-04 05:36 26.70728 -81.74378 25217 ft 426 kts 142°
2026-05-04 05:36 26.68672 -81.71997 24842 ft 423 kts 142°
2026-05-04 05:36 26.66639 -81.69641 24493 ft 419 kts 142°
2026-05-04 05:37 26.64623 -81.67303 24148 ft 416 kts 141°
2026-05-04 05:37 26.62683 -81.64908 23783 ft 417 kts 135°
2026-05-04 05:37 26.60951 -81.62325 23401 ft 411 kts 134°
2026-05-04 05:38 26.57574 -81.57289 22356 ft 402 kts 134°
2026-05-04 05:38 26.55904 -81.54805 21583 ft 396 kts 134°
2026-05-04 05:38 26.54249 -81.52349 20859 ft 394 kts 134°
2026-05-04 05:38 26.52609 -81.49919 20254 ft 388 kts 134°
2026-05-04 05:39 26.50986 -81.47514 19687 ft 387 kts 134°
2026-05-04 05:39 26.47765 -81.42745 18915 ft 381 kts 134°
2026-05-04 05:39 26.46167 -81.40377 18439 ft 382 kts 134°
2026-05-04 05:40 26.43035 -81.35741 17641 ft 372 kts 134°
2026-05-04 05:40 26.41494 -81.33458 16973 ft 366 kts 134°
2026-05-04 05:40 26.39936 -81.31224 16553 ft 363 kts 135°
2026-05-04 05:41 26.38338 -81.29052 16140 ft 360 kts 136°
2026-05-04 05:41 26.36726 -81.26927 15724 ft 358 kts 136°
2026-05-04 05:41 26.35116 -81.24824 15344 ft 355 kts 136°
2026-05-04 05:41 26.33521 -81.22732 14985 ft 352 kts 136°
2026-05-04 05:42 26.31941 -81.20645 14568 ft 351 kts 135°
2026-05-04 05:42 26.30378 -81.18565 14151 ft 350 kts 135°
2026-05-04 05:42 26.28826 -81.16494 13838 ft 346 kts 135°
2026-05-04 05:42 26.27284 -81.14441 13368 ft 346 kts 135°
2026-05-04 05:43 26.25751 -81.12421 12982 ft 343 kts 135°
2026-05-04 05:43 26.24217 -81.10404 12478 ft 339 kts 135°
2026-05-04 05:43 26.22708 -81.08419 12067 ft 333 kts 135°
2026-05-04 05:45 26.14050 -80.93913 9359 ft 322 kts 101°
2026-05-04 05:45 26.13655 -80.91470 9035 ft 319 kts 101°
2026-05-04 05:47 26.10935 -80.75193 6708 ft 295 kts 102°
2026-05-04 05:47 26.10572 -80.73028 6556 ft 273 kts 102°
2026-05-04 05:47 26.10227 -80.70973 6421 ft 267 kts 102°
2026-05-04 05:48 26.09886 -80.68948 6279 ft 265 kts 102°
2026-05-04 05:48 26.09552 -80.66956 6139 ft 264 kts 102°
2026-05-04 05:48 26.09213 -80.64945 6000 ft 263 kts 102°
2026-05-04 05:48 26.08875 -80.62944 5863 ft 263 kts 101°
2026-05-04 05:49 26.08539 -80.60951 5723 ft 262 kts 101°
2026-05-04 05:49 26.08203 -80.58964 5586 ft 261 kts 101°
2026-05-04 05:49 26.07865 -80.56978 5452 ft 260 kts 101°
2026-05-04 05:49 26.07528 -80.55005 5309 ft 259 kts 101°
2026-05-04 05:51 26.06712 -80.41653 4245 ft 236 kts 90°
2026-05-04 05:51 26.06707 -80.40451 4188 ft 233 kts 90°
2026-05-04 05:52 26.06700 -80.38689 3929 ft 221 kts 90°
2026-05-04 05:52 26.06691 -80.36486 3556 ft 208 kts 90°
2026-05-04 05:52 26.06686 -80.35418 3410 ft 196 kts 90°
2026-05-04 05:52 26.06680 -80.33990 3149 ft 179 kts 90°
2026-05-04 05:53 26.06674 -80.32657 2916 ft 167 kts 90°
2026-05-04 05:54 26.06633 -80.24031 1470 ft 155 kts 90°
2026-05-04 05:55 26.06626 -80.22839 1268 ft 154 kts 89°
2026-05-04 05:55 26.06620 -80.21658 1069 ft 152 kts 89°
2026-05-04 05:55 26.06614 -80.20486 873 ft 151 kts 89°
2026-05-04 05:55 26.06608 -80.19329 678 ft 148 kts 89°
2026-05-04 05:56 26.06601 -80.18203 487 ft 146 kts 89°
2026-05-04 05:56 26.06595 -80.17078 292 ft 144 kts 89°
2026-05-04 05:56 26.06589 -80.15969 91 ft 144 kts 90°
2026-05-04 05:56 26.06585 -80.14946 21 ft 100 kts 90°
2026-05-04 05:57 26.06579 -80.14435 17 ft 48 kts 90°
2026-05-04 05:57 26.06622 -80.14255 19 ft 11 kts 57°
2026-05-04 05:57 26.06680 -80.14251 19 ft 9 kts 307°
2026-05-04 05:57 26.06690 -80.14324 19 ft 10 kts 272°
2026-05-04 05:58 26.06692 -80.14412 18 ft 12 kts 271°
2026-05-04 05:58 26.06693 -80.14513 17 ft 14 kts 269°
2026-05-04 05:58 26.06692 -80.14622 17 ft 15 kts 269°
2026-05-04 05:58 26.06692 -80.14734 19 ft 14 kts 271°
2026-05-04 05:59 26.06694 -80.14841 21 ft 14 kts 269°
2026-05-04 05:59 26.06732 -80.14919 22 ft 11 kts 350°
2026-05-04 05:59 26.06767 -80.14859 22 ft 11 kts 89°
2026-05-04 05:59 26.06766 -80.14745 19 ft 18 kts 90°
2026-05-04 06:00 26.06775 -80.14611 17 ft 14 kts 55°
2026-05-04 06:00 26.06847 -80.14571 17 ft 7 kts 22°
2026-05-04 06:00 26.06878 -80.14555 17 ft 4 kts 26°
2026-05-04 06:00 26.06883 -80.14553 17 ft 0 kts 26°
2026-05-04 06:03 26.06882 -80.14553 17 ft 0 kts 26°
2026-05-04 06:05 26.06883 -80.14553 18 ft 0 kts 26°